This is the latest recevied weather packets stored in our database for station/object KE8WMS. If no packets are shown the sender has not sent any weather packets the latest 10 day(s).
| Time | Temp. | Humidity | Pressure | Rain* | Wind** | Luminosity | Snow |
|---|---|---|---|---|---|---|---|
| 1777988256 | 18.33° C | 71% | 1001.7 hPa | 0 mm | - | 115 W/m² | - |
| 1777987952 | 18.33° C | 73% | 1001.6 hPa | 0 mm | - | 98 W/m² | - |
| 1777987648 | 17.78° C | 73% | 1001.6 hPa | 0 mm | - | 91 W/m² | - |
| 1777987346 | 17.78° C | 74% | 1001.3 hPa | 0 mm | - | 103 W/m² | - |
| 1777987043 | 17.22° C | 74% | 1001.6 hPa | 0 mm | - | 72 W/m² | - |
| 1777986740 | 17.22° C | 74% | 1001.4 hPa | 0 mm | - | 112 W/m² | - |
| 1777986438 | 17.22° C | 75% | 1001.5 hPa | 0 mm | - | 116 W/m² | - |
| 1777986136 | 17.22° C | 74% | 1001.8 hPa | 0 mm | - | 113 W/m² | - |
| 1777985832 | 17.22° C | 74% | 1001.9 hPa | 0 mm | - | 110 W/m² | - |
| 1777985530 | 17.22° C | 73% | 1001.9 hPa | 0 mm | - | 112 W/m² | - |
| 1777985227 | 17.22° C | 73% | 1001.8 hPa | 0 mm | - | 101 W/m² | - |
| 1777984923 | 16.67° C | 73% | 1001.6 hPa | 0 mm | - | 80 W/m² | - |
| 1777984619 | 16.67° C | 73% | 1001.7 hPa | 0 mm | - | 63 W/m² | - |
| 1777984316 | 16.67° C | 72% | 1001.4 hPa | 0 mm | - | 54 W/m² | - |
| 1777984013 | 16.67° C | 73% | 1001.6 hPa | 0 mm | - | 47 W/m² | - |
| 1777983709 | 16.67° C | 72% | 1001.7 hPa | 0 mm | - | 40 W/m² | - |
| 1777983406 | 16.67° C | 72% | 1001.6 hPa | 0 mm | - | 41 W/m² | - |
| 1777983103 | 16.67° C | 72% | 1001.3 hPa | 0 mm | - | 40 W/m² | - |
| 1777982799 | 16.67° C | 72% | 1001.1 hPa | 0 mm | - | 40 W/m² | - |
| 1777982495 | 16.67° C | 72% | 1000.9 hPa | 0 mm | - | 45 W/m² | - |
| 1777982189 | 16.67° C | 72% | 1000.6 hPa | 0 mm | - | 48 W/m² | - |
| 1777981887 | 16.67° C | 72% | 1000.3 hPa | 0 mm | - | 47 W/m² | - |
| 1777981584 | 17.22° C | 71% | 1000.5 hPa | 0 mm | - | 43 W/m² | - |
| 1777981280 | 17.22° C | 71% | 1000 hPa | 0 mm | - | 36 W/m² | - |
| 1777980977 | 17.22° C | 69% | 1000.4 hPa | 0 mm | - | 32 W/m² | - |
* Rain latest hour (hover to see other rain measurements)
** Current wind speed in m/s (hover to see current wind gust speed)